Location: Stoke Bliss
(52.2667°N, 2.5167°W)
Time: 21:34:40
(UTC+00:00)

Cosmos 2242 Rocket - Pass Details

Date: 03 March 2021
Orbit: 617 x 652 km, 82.5° (Epoch: 15 April)

Event Time Altitude Azimuth Distance (km) Brightness Sun altitude
Rises 19:03:39 0° 351° (N) 2,968 7.2 -11.5°
Reaches altitude 10° 19:05:57 10° 355° (N) 2,048 6.4 -11.9°
Maximum altitude 19:10:27 62° 76° (ENE) 718 3.6 -12.6°
Drops below altitude 10° 19:14:52 10° 158° (SSE) 2,009 5.9 -13.2°
Sets 19:17:07 0° 162° (SSE) 2,907 6.8 -13.6°
